EN

Hourly Weather Bredynki

Today, 13 May, Thursday

Time Temperature Precipitation Wind Pressure Humidity
00:00 +11°C° 0 mm 3 mps 742 mmHg 84%
01:00 +10°C° 0 mm 3 mps 741 mmHg 86%
02:00 +9°C° 0 mm 3 mps 741 mmHg 87%
03:00 +9°C° 0 mm 2 mps 741 mmHg 88%
04:00 +8°C° 0 mm 2 mps 740 mmHg 89%
05:00 +10°C° 0 mm 2 mps 740 mmHg 81%
06:00 +13°C° 0 mm 2 mps 740 mmHg 74%
07:00 +15°C° 0 mm 1 mps 739 mmHg 66%
08:00 +16°C° 0 mm 2 mps 739 mmHg 64%
09:00 +17°C° 0 mm 3 mps 739 mmHg 61%
10:00 +18°C° 0 mm 3 mps 739 mmHg 59%
11:00 +17°C° 0 mm 3 mps 738 mmHg 62%
12:00 +17°C° 0 mm 3 mps 738 mmHg 65%
13:00 +16°C° 0 mm 3 mps 737 mmHg 68%
14:00 +16°C° 0.1 mm 3 mps 737 mmHg 70%
15:00 +16°C° 0.1 mm 3 mps 737 mmHg 71%
16:00 +16°C° 0.1 mm 2 mps 737 mmHg 72%
17:00 +15°C° 0.3 mm 2 mps 737 mmHg 79%
18:00 +13°C° 0.3 mm 2 mps 736 mmHg 85%
19:00 +12°C° 0.3 mm 2 mps 736 mmHg 91%
20:00 +10°C° 0 mm 2 mps 736 mmHg 93%
21:00 +9°C° 0 mm 2 mps 736 mmHg 95%
22:00 +8°C° 0 mm 2 mps 736 mmHg 96%
23:00 +7°C° 0.1 mm 2 mps 736 mmHg 97%

Tomorrow, 14 May, Friday

Time Temperature Precipitation Wind Pressure Humidity
00:00 +8°C° 0.1 mm 1 mps 736 mmHg 97%
01:00 +8°C° 0.1 mm 1 mps 736 mmHg 97%
02:00 +7°C° 0.1 mm 1 mps 736 mmHg 96%
03:00 +7°C° 0.1 mm 1 mps 736 mmHg 96%
04:00 +7°C° 0.1 mm 1 mps 736 mmHg 96%
05:00 +8°C° 0 mm 1 mps 736 mmHg 92%
06:00 +10°C° 0 mm 1 mps 736 mmHg 89%
07:00 +11°C° 0 mm 1 mps 736 mmHg 85%
08:00 +12°C° 0 mm 1 mps 736 mmHg 78%
09:00 +14°C° 0 mm 2 mps 736 mmHg 72%
10:00 +15°C° 0 mm 2 mps 736 mmHg 65%
11:00 +16°C° 0 mm 2 mps 736 mmHg 62%
12:00 +17°C° 0 mm 3 mps 736 mmHg 58%
13:00 +18°C° 0 mm 3 mps 737 mmHg 55%
14:00 +17°C° 0 mm 3 mps 737 mmHg 57%
15:00 +17°C° 0 mm 3 mps 737 mmHg 58%
16:00 +17°C° 0 mm 3 mps 737 mmHg 60%
17:00 +14°C° 0 mm 3 mps 737 mmHg 68%
18:00 +14°C° 0 mm 2 mps 738 mmHg 77%
19:00 +12°C° 0 mm 2 mps 738 mmHg 85%
20:00 +10°C° 0 mm 2 mps 738 mmHg 88%
21:00 +10°C° 0 mm 1 mps 739 mmHg 90%
22:00 +9°C° 0 mm 1 mps 739 mmHg 92%
23:00 +9°C° 0 mm 1 mps 739 mmHg 92%

Day after tomorrow, 15 May, Saturday

Time Temperature Precipitation Wind Pressure Humidity
00:00 +8°C° 0 mm 1 mps 739 mmHg 93%
01:00 +8°C° 0 mm 1 mps 739 mmHg 93%
02:00 +9°C° 0 mm 1 mps 739 mmHg 93%
03:00 +9°C° 0 mm 1 mps 740 mmHg 94%
04:00 +9°C° 0 mm 1 mps 740 mmHg 94%
05:00 +10°C° 0 mm 1 mps 740 mmHg 93%
06:00 +10°C° 0 mm 2 mps 740 mmHg 91%
07:00 +12°C° 0 mm 2 mps 741 mmHg 89%
08:00 +13°C° 0 mm 2 mps 741 mmHg 85%
09:00 +14°C° 0 mm 2 mps 741 mmHg 82%
10:00 +13°C° 0 mm 3 mps 741 mmHg 78%
11:00 +13°C° 0.1 mm 3 mps 741 mmHg 79%
12:00 +14°C° 0.1 mm 3 mps 741 mmHg 79%
13:00 +15°C° 0.1 mm 2 mps 741 mmHg 80%
14:00 +15°C° 0.1 mm 2 mps 741 mmHg 79%
15:00 +15°C° 0.1 mm 2 mps 741 mmHg 79%
16:00 +15°C° 0.1 mm 2 mps 741 mmHg 78%
17:00 +14°C° 0.1 mm 1 mps 741 mmHg 81%
18:00 +14°C° 0.1 mm 1 mps 741 mmHg 85%
19:00 +12°C° 0.1 mm 0 mps 741 mmHg 88%
20:00 +12°C° 0 mm 1 mps 742 mmHg 90%
21:00 +11°C° 0 mm 1 mps 742 mmHg 91%
22:00 +10°C° 0 mm 1 mps 742 mmHg 93%
23:00 +10°C° 0 mm 1 mps 742 mmHg 93%

16 May, Sunday

Time Temperature Precipitation Wind Pressure Humidity
00:00 +9°C° 0 mm 2 mps 742 mmHg 94%
01:00 +8°C° 0 mm 2 mps 742 mmHg 94%
02:00 +8°C° 0 mm 2 mps 742 mmHg 94%
03:00 +8°C° 0 mm 2 mps 741 mmHg 94%
04:00 +8°C° 0 mm 2 mps 741 mmHg 94%
05:00 +9°C° 0 mm 2 mps 741 mmHg 92%
06:00 +11°C° 0 mm 3 mps 741 mmHg 90%
07:00 +12°C° 0 mm 3 mps 741 mmHg 87%
08:00 +14°C° 0.1 mm 4 mps 741 mmHg 81%
09:00 +15°C° 0.1 mm 5 mps 741 mmHg 75%
10:00 +17°C° 0.1 mm 6 mps 740 mmHg 69%
11:00 +16°C° 0.7 mm 5 mps 740 mmHg 75%
12:00 +16°C° 0.7 mm 5 mps 740 mmHg 81%
13:00 +15°C° 0.7 mm 4 mps 740 mmHg 87%
14:00 +14°C° 0.5 mm 4 mps 740 mmHg 87%
15:00 +14°C° 0.5 mm 3 mps 740 mmHg 87%
16:00 +13°C° 0.5 mm 3 mps 739 mmHg 87%
17:00 +14°C° 0.1 mm 2 mps 739 mmHg 89%
18:00 +13°C° 0.1 mm 2 mps 739 mmHg 91%
19:00 +12°C° 0.1 mm 2 mps 739 mmHg 93%
20:00 +12°C° 0.1 mm 1 mps 740 mmHg 94%
21:00 +12°C° 0.1 mm 1 mps 740 mmHg 94%
22:00 +11°C° 0.1 mm 1 mps 740 mmHg 95%
23:00 +11°C° 0.1 mm 1 mps 740 mmHg 95%

17 May, Monday

Time Temperature Precipitation Wind Pressure Humidity
00:00 +11°C° 0.1 mm 1 mps 740 mmHg 95%
01:00 +10°C° 0.1 mm 1 mps 740 mmHg 95%
02:00 +9°C° 0 mm 2 mps 740 mmHg 94%
03:00 +8°C° 0 mm 2 mps 740 mmHg 94%
04:00 +8°C° 0 mm 2 mps 740 mmHg 94%
05:00 +9°C° 0 mm 2 mps 740 mmHg 89%
06:00 +11°C° 0 mm 3 mps 740 mmHg 83%
07:00 +13°C° 0 mm 3 mps 740 mmHg 78%
08:00 +14°C° 0 mm 3 mps 740 mmHg 71%
09:00 +16°C° 0 mm 3 mps 740 mmHg 64%
10:00 +18°C° 0 mm 4 mps 740 mmHg 57%
11:00 +17°C° 0.3 mm 4 mps 740 mmHg 61%
12:00 +17°C° 0.3 mm 4 mps 740 mmHg 65%
13:00 +17°C° 0.3 mm 4 mps 740 mmHg 69%
14:00 +17°C° 0.4 mm 4 mps 740 mmHg 72%
15:00 +17°C° 0.4 mm 4 mps 740 mmHg 75%
16:00 +15°C° 0.4 mm 4 mps 740 mmHg 78%
17:00 +14°C° 0.3 mm 3 mps 740 mmHg 82%
18:00 +13°C° 0.3 mm 3 mps 740 mmHg 86%
19:00 +13°C° 0.3 mm 2 mps 740 mmHg 91%
20:00 +12°C° 0 mm 2 mps 740 mmHg 92%
21:00 +12°C° 0 mm 2 mps 740 mmHg 94%
22:00 +10°C° 0 mm 2 mps 740 mmHg 95%
23:00 +10°C° 0 mm 2 mps 740 mmHg 95%

18 May, Tuesday

Time Temperature Precipitation Wind Pressure Humidity
00:00 +9°C° 0 mm 2 mps 740 mmHg 96%
01:00 +9°C° 0 mm 2 mps 740 mmHg 96%
02:00 +9°C° 0 mm 2 mps 740 mmHg 96%
03:00 +9°C° 0 mm 2 mps 740 mmHg 96%
04:00 +9°C° 0 mm 2 mps 740 mmHg 96%
05:00 +9°C° 0 mm 2 mps 740 mmHg 93%
06:00 +10°C° 0 mm 3 mps 740 mmHg 91%
07:00 +10°C° 0 mm 3 mps 740 mmHg 89%
08:00 +12°C° 0.2 mm 3 mps 740 mmHg 83%
09:00 +13°C° 0.2 mm 3 mps 740 mmHg 77%
10:00 +14°C° 0.2 mm 3 mps 741 mmHg 71%
11:00 +14°C° 0.5 mm 3 mps 741 mmHg 72%
12:00 +14°C° 0.5 mm 3 mps 741 mmHg 73%
13:00 +14°C° 0.5 mm 3 mps 741 mmHg 74%
14:00 +14°C° 0.6 mm 3 mps 741 mmHg 75%
15:00 +14°C° 0.6 mm 3 mps 741 mmHg 76%
16:00 +14°C° 0.6 mm 3 mps 741 mmHg 78%
17:00 +13°C° 0.4 mm 3 mps 741 mmHg 82%
18:00 +12°C° 0.4 mm 3 mps 741 mmHg 86%
19:00 +12°C° 0.4 mm 2 mps 741 mmHg 90%
20:00 +10°C° 0 mm 2 mps 741 mmHg 92%
21:00 +10°C° 0 mm 1 mps 742 mmHg 94%
22:00 +9°C° 0 mm 1 mps 742 mmHg 96%
23:00 +9°C° 0 mm 1 mps 742 mmHg 96%
Show more

We Need Your Consent

Meteoprog and our Service Providers may store and access personal data such as cookies, device identifiers or other similar technologies on your device and process such data to personalise content and ads, as well as provide social media features and to analyse the traffic.

  • Store and/or access information on your device

    Cookies, device identifiers or other information can be stored or accessed on your device for the purposes indicated above.

  • Personalised ads and content, ad and content measurement, audience insights, and products development

    Ads and content can be personalised based on a profile. More data can be added to better personalise ads and content. Ad and content performance can be measured. Insights about the audience who saw the ads and content can be derived. Such data can be used to develop or improve user’s experience, systems and software.

By clicking ‘I Agree’ you will allow the use of indicated cookies, device identifiers, web beacons or other similar technologies. Your settings can be changed in the browser on your device.

For certain purposes, legitimate interests may be relied on, rather than consent. You can read more about this in our Privacy and Cookie Policy.